Location: Potomac
(46.8816°N, 113.5795°W)
Time: 01:53:33
(UTC+00:00)

SEEDS - Pass Details

Date: 06 July 2022
Orbit: 579 x 598 km, 97.6° (Epoch: 06 August)

Event Time Altitude Azimuth Distance (km) Brightness Sun altitude
Rises 10:27:02 0° 35° (NE) 2,809 ? -10.8°
Reaches altitude 10° 10:31:16 10° 77° (ENE) 1,900 ? -10.4°
Maximum altitude 10:31:57 10° 87° (E) 1,876 ? -10.3°
Drops below altitude 10° 10:32:39 10° 97° (E) 1,897 ? -10.2°
Sets 10:36:50 0° 139° (SE) 2,788 ? -9.7°
